Poughkeepsie, NY

9:42 PM EDT on March 28, 2017 (GMT -0400)
Dutchess County

Weather History for KPOU - December, 2014

Change the Weather History Date:

Thursday, December 25, 2014

  Actual Average Record
Temperature  
Mean Temperature 52 °F 28 °F  
Max Temperature 62 °F 37 °F 63 °F (1964)
Min Temperature 41 °F 19 °F -13 °F (1980)
Degree Days  
Heating Degree Days 13 37  
Month to date heating degree days 721 823  
Since 1 July heating degree days 1872 2101  
Cooling Degree Days 0 0  
Month to date cooling degree days 0 0  
Year to date cooling degree days 696 672  
Growing Degree Days 2 (Base 50)    
Moisture  
Dew Point 39 °F    
Average Humidity 66    
Maximum Humidity 90    
Minimum Humidity 42    
Precipitation  
Precipitation 0.01 in 0.11 in 1.07 in (1965)
Month to date precipitation 2.95 2.91  
Year to date precipitation 34.09 45.91  
Sea Level Pressure  
Sea Level Pressure 29.71 in    
Wind  
Wind Speed 13 mph (WSW)    
Max Wind Speed 25 mph    
Max Gust Speed 34 mph    
Visibility 9 miles    
Events Rain    
T = Trace of Precipitation, MM = Missing Value Source: NWS Daily Summary

Daily Weather History Graph

Daily Weather History Graph

Search for Another Location

Airport or City:

Trip Planner

Search our weather history database for the weather conditions in past years. The results will help you decide how hot, cold, wet, or windy it might be!

Date:

Astronomy

Dec. 25, 2014 Rise Set
Actual Time 7:20 AM EST 4:30 PM EST
Civil Twilight 6:49 AM EST 5:02 PM EST
Nautical Twilight 6:14 AM EST 5:37 PM EST
Astronomical Twilight 5:40 AM EST 6:10 PM EST
Moon 9:49 AM EST (12/25) 9:04 PM EST (12/25)
Length of Visible Light 10h 12m
Length of Day
9h 09m
Waxing Crescent, 17% of the Moon is Illuminated
Dec 25
Waxing Crescent
Dec 28
First Quarter
Jan 4
Full
Jan 13
Last Quarter
Jan 20
New

Hourly Weather History & Observations

Time (EST) Temp. Windchill Dew Point Humidity Pressure Visibility Wind Dir Wind Speed Gust Speed Precip Events Conditions
12:06 AM 55.9 °F - 53.1 °F 90% 29.49 in 7.0 mi South 6.9 mph - N/A   Overcast
12:16 AM 57.0 °F - 55.0 °F 93% 29.49 in 10.0 mi South 6.9 mph - N/A   Overcast
12:53 AM 59.0 °F - 55.9 °F 90% 29.46 in 10.0 mi South 10.4 mph - N/A   Overcast
1:53 AM 60.1 °F - 57.0 °F 90% 29.46 in 10.0 mi South 8.1 mph 19.6 mph N/A   Overcast
2:53 AM 57.0 °F - 54.0 °F 89% 29.48 in 10.0 mi West 3.5 mph - N/A   Overcast
3:17 AM 55.9 °F - 54.0 °F 93% 29.47 in 1.8 mi Calm Calm - N/A   Mostly Cloudy
3:37 AM 57.9 °F - 55.0 °F 90% 29.48 in 3.0 mi SW 8.1 mph - N/A   Mostly Cloudy
3:53 AM 61.0 °F - 55.9 °F 83% 29.47 in 10.0 mi WSW 8.1 mph - 0.00 in Rain Light Rain
4:53 AM 57.9 °F - 48.0 °F 70% 29.50 in 10.0 mi West 21.9 mph 28.8 mph 0.00 in Rain Light Rain
5:53 AM 54.0 °F - 41.0 °F 62% 29.56 in 10.0 mi WSW 12.7 mph 31.1 mph 0.00 in Rain Light Rain
6:53 AM 51.1 °F - 41.0 °F 68% 29.58 in 10.0 mi West 11.5 mph - 0.01 in   Overcast
7:53 AM 50.0 °F - 39.9 °F 68% 29.61 in 10.0 mi WSW 11.5 mph - 0.00 in   Mostly Cloudy
8:53 AM 48.9 °F - 37.9 °F 66% 29.64 in 10.0 mi WSW 10.4 mph - N/A   Partly Cloudy
9:53 AM 48.9 °F - 34.0 °F 56% 29.68 in 10.0 mi WSW 11.5 mph 20.7 mph N/A   Clear
10:53 AM 51.1 °F - 33.1 °F 50% 29.70 in 10.0 mi West 18.4 mph 27.6 mph N/A   Mostly Cloudy
11:53 AM 51.1 °F - 30.0 °F 44% 29.70 in 10.0 mi West 17.3 mph 25.3 mph N/A   Mostly Cloudy
12:53 PM 50.0 °F - 28.9 °F 44% 29.74 in 10.0 mi WSW 15.0 mph 23.0 mph N/A   Overcast
1:53 PM 50.0 °F - 28.9 °F 44% 29.77 in 10.0 mi WSW 16.1 mph 25.3 mph N/A   Overcast
2:53 PM 50.0 °F - 28.9 °F 44% 29.82 in 10.0 mi West 17.3 mph 26.5 mph N/A   Mostly Cloudy
3:53 PM 50.0 °F - 28.0 °F 43% 29.86 in 10.0 mi West 11.5 mph - N/A   Overcast
4:53 PM 48.9 °F - 27.0 °F 43% 29.90 in 10.0 mi West 15.0 mph 19.6 mph N/A   Overcast
5:53 PM 48.9 °F - 27.0 °F 43% 29.93 in 10.0 mi WSW 16.1 mph 26.5 mph N/A   Overcast
6:53 PM 48.0 °F - 28.0 °F 46% 29.96 in 10.0 mi West 16.1 mph 24.2 mph N/A   Overcast
7:53 PM 46.9 °F - 28.0 °F 48% 29.99 in 10.0 mi West 12.7 mph - N/A   Mostly Cloudy
8:53 PM 46.0 °F 41.4 °F 28.0 °F 50% 30.01 in 10.0 mi West 9.2 mph - N/A   Clear
9:53 PM 42.1 °F 36.6 °F 28.0 °F 58% 30.04 in 10.0 mi WSW 9.2 mph - N/A   Clear
10:53 PM 44.1 °F 39.0 °F 28.0 °F 53% 30.05 in 10.0 mi West 9.2 mph - N/A   Clear
11:53 PM 41.0 °F 36.4 °F 28.0 °F 60% 30.06 in 10.0 mi West 6.9 mph - N/A   Clear